TimeEST,TemperatureF,Dew PointF,Humidity,Sea Level PressureIn,VisibilityMPH,Wind Direction,Wind SpeedMPH,Gust SpeedMPH,PrecipitationIn,Events,Conditions,WindDirDegrees,DateUTC
12:53 AM,39.0,18.0,43,30.17,10.0,NW,11.5,-,N/A,,Clear,310,2013-02-17 05:53:00
1:53 AM,37.9,17.1,43,30.18,10.0,NW,9.2,18.4,N/A,,Clear,310,2013-02-17 06:53:00
2:53 AM,37.0,17.1,44,30.18,10.0,WNW,6.9,-,N/A,,Clear,290,2013-02-17 07:53:00
3:53 AM,34.0,19.9,56,30.20,10.0,West,8.1,-,N/A,,Clear,260,2013-02-17 08:53:00
4:53 AM,34.0,19.0,54,30.22,10.0,WNW,6.9,-,N/A,,Clear,290,2013-02-17 09:53:00
5:53 AM,33.1,18.0,54,30.25,10.0,West,5.8,-,N/A,,Clear,270,2013-02-17 10:53:00
6:53 AM,32.0,19.0,59,30.26,10.0,WNW,6.9,-,N/A,,Partly Cloudy,290,2013-02-17 11:53:00
7:53 AM,34.0,19.0,54,30.29,10.0,NW,10.4,-,N/A,,Partly Cloudy,310,2013-02-17 12:53:00
8:53 AM,37.0,16.0,42,30.31,10.0,NNW,19.6,24.2,N/A,,Partly Cloudy,340,2013-02-17 13:53:00
9:53 AM,39.9,10.9,31,30.33,10.0,NNW,18.4,-,N/A,,Partly Cloudy,330,2013-02-17 14:53:00
10:53 AM,42.1,7.0,24,30.33,10.0,NW,15.0,-,N/A,,Clear,320,2013-02-17 15:53:00
11:53 AM,44.1,6.1,21,30.33,10.0,NW,11.5,16.1,N/A,,Clear,310,2013-02-17 16:53:00
12:53 PM,46.9,3.0,16,30.31,10.0,WNW,11.5,19.6,N/A,,Clear,290,2013-02-17 17:53:00
1:53 PM,50.0,5.0,16,30.28,10.0,NNW,8.1,17.3,N/A,,Clear,340,2013-02-17 18:53:00
2:53 PM,51.1,5.0,15,30.27,10.0,NW,12.7,-,N/A,,Clear,310,2013-02-17 19:53:00
3:53 PM,52.0,6.1,16,30.27,10.0,NW,12.7,19.6,N/A,,Clear,310,2013-02-17 20:53:00
4:53 PM,51.1,5.0,15,30.27,10.0,NW,10.4,17.3,N/A,,Clear,310,2013-02-17 21:53:00
5:53 PM,50.0,7.0,18,30.27,10.0,Variable,3.5,-,N/A,,Clear,0,2013-02-17 22:53:00
6:53 PM,48.0,10.0,22,30.29,10.0,WNW,4.6,-,N/A,,Clear,290,2013-02-17 23:53:00
7:53 PM,46.9,12.9,25,30.31,10.0,NW,4.6,-,N/A,,Clear,310,2013-02-18 00:53:00
8:53 PM,45.0,15.1,30,30.33,10.0,NW,6.9,-,N/A,,Clear,320,2013-02-18 01:53:00
9:53 PM,44.1,18.0,35,30.35,10.0,NW,5.8,-,N/A,,Clear,320,2013-02-18 02:53:00
10:53 PM,42.1,17.1,37,30.36,10.0,WNW,4.6,-,N/A,,Clear,300,2013-02-18 03:53:00
11:53 PM,42.1,18.0,38,30.37,10.0,NW,4.6,-,N/A,,Clear,310,2013-02-18 04:53:00